Simultaneous Nadir Overpasses (SNOs) Predictions

Prediction of SNOs between NOAA-19 and TERRA Satellite Orbit:

Table of predicted SNOs for the next 14.0 days since TLE Epoch: 8/24/2019
Index Date (NOAA-19) Time (NOAA-19) Lat,Lon (NOAA-19) SZA (NOAA-19 ) Date (TERRA) Time (TERRA) Lat,Lon (TERRA) SZA (TERRA ) Distance(km) Time Diff (sec)
1 08/24/2019 09:40:57 -78.69,-121.99 111.59 08/24/2019 09:41:12 -78.71,-121.88 111.56 2.99 15
2 08/26/2019 15:14:26 78.69, -25.26 69.20 08/26/2019 15:14:55 78.70, -25.34 69.22 2.40 29
3 08/26/2019 16:05:20 -78.67, 142.17 110.80 08/26/2019 16:04:23 -78.66, 142.08 110.83 2.00 57
4 08/28/2019 20:47:44 -78.70, 71.38 110.00 08/28/2019 20:48:38 -78.74, 71.42 109.95 3.61 54
5 08/28/2019 21:38:50 78.70,-121.34 70.02 08/28/2019 21:38:05 78.69,-121.18 70.01 3.67 45
6 08/31/2019 02:21:14 78.74, 167.86 70.83 08/31/2019 02:22:21 78.72, 167.91 70.85 2.06 67
7 08/31/2019 03:12:07 -78.68, -24.48 109.18 08/31/2019 03:11:49 -78.69, -24.65 109.19 3.69 18
8 09/02/2019 08:45:37 78.72, 71.97 71.67 09/02/2019 08:45:31 78.71, 72.05 71.66 2.06 6
9 09/04/2019 14:18:55 -78.74, 168.60 107.49 09/04/2019 14:19:15 -78.70, 168.59 107.52 3.79 20
10 09/04/2019 15:09:53 78.46, -22.24 72.43 09/04/2019 15:08:45 78.53, -24.71 72.26 55.36 68
11 09/06/2019 19:52:24 78.75, -94.80 73.36 09/06/2019 19:52:57 78.72, -94.76 73.34 4.06 33




NCC Satellite Simultaneous Nadir Overpasses (SNOs) Prediction Service
